Weather History for Friday Harbor, WA

Change the Weather History Date:

Monday, January 7, 2013

  Actual Average Record
Temperature  
Mean Temperature 42 °F -  
Max Temperature 48 °F 43 °F 54 °F (2002)
Min Temperature 37 °F 35 °F 30 °F (2005)
Degree Days  
Heating Degree Days 22    
Moisture  
Dew Point 42 °F    
Average Humidity 90    
Maximum Humidity 100    
Minimum Humidity 74    
Precipitation  
Precipitation 0.02 in - - ()
Sea Level Pressure  
Sea Level Pressure 29.91 in    
Wind  
Wind Speed 11 mph (South)    
Max Wind Speed 16 mph    
Max Gust Speed 33 mph    
Visibility 10 miles    
Events Rain    
Averages and records for this station are not official NWS values.
T = Trace of Precipitation, MM = Missing Value Source: NWS Daily Summary

Daily Weather History Graph

Daily Weather History Graph

Search for Another Location

Airport:

Trip Planner

Search our weather history database for the weather conditions in past years. The results will help you decide how hot, cold, wet, or windy it might be!

Date:

Astronomy

Jan. 07, 2013 Rise Set
Actual Time 8:02 AM PST 4:34 PM PST
Civil Twilight 7:26 AM PST 5:10 PM PST
Nautical Twilight 6:47 AM PST 5:50 PM PST
Astronomical Twilight 6:09 AM PST 6:28 PM PST
Moon 3:27 AM PST (1/7) 12:53 PM PST (1/7)
Length of Visible Light 9h 44m
Length of Day
8h 31m
Waning Crescent, 21% of the Moon is Illuminated
Jan 7
Waning Crescent
Jan 11
New
Jan 18
First Quarter
Jan 26
Full
Feb 3
Last Quarter

Hourly Weather History & Observations

Time (PST) Temp. Windchill Dew Point Humidity Pressure Visibility Wind Dir Wind Speed Gust Speed Precip Events Conditions
12:53 AM 42.1 °F 34.9 °F 41.0 °F 96% 29.92 in 10.0 mi East 13.8 mph 21.9 mph 0.00 in Rain Light Rain
1:53 AM 42.1 °F 35.2 °F 39.9 °F 92% 29.91 in 8.0 mi ESE 12.7 mph - 0.01 in Rain Light Rain
2:53 AM 42.1 °F 34.9 °F 39.9 °F 92% 29.89 in 10.0 mi East 13.8 mph - 0.01 in Rain Light Rain
3:28 AM 42.8 °F 36.2 °F 39.2 °F 87% 29.87 in 9.0 mi East 12.7 mph - 0.00 in Rain Light Rain
3:53 AM 43.0 °F 36.0 °F 41.0 °F 93% 29.86 in 9.0 mi ESE 13.8 mph - 0.00 in Rain Light Rain
4:53 AM 43.0 °F 35.7 °F 41.0 °F 93% 29.81 in 10.0 mi ESE 15.0 mph 21.9 mph 0.00 in Rain Light Rain
5:53 AM 43.0 °F 36.4 °F 41.0 °F 93% 29.81 in 10.0 mi ESE 12.7 mph - 0.00 in Rain Light Rain
6:53 AM 44.1 °F 37.7 °F 42.1 °F 93% 29.79 in 10.0 mi ESE 12.7 mph - 0.00 in   Overcast
7:53 AM 44.1 °F 39.0 °F 42.1 °F 93% 29.80 in 10.0 mi ESE 9.2 mph - N/A   Overcast
8:31 AM 44.6 °F 39.7 °F 42.8 °F 93% 29.81 in 4.0 mi SE 9.2 mph - 0.00 in Rain Light Rain
8:53 AM 45.0 °F 40.1 °F 44.1 °F 97% 29.81 in 4.0 mi SE 9.2 mph - 0.00 in Rain Light Rain
9:24 AM 44.6 °F 40.7 °F 44.6 °F 100% 29.81 in 10.0 mi South 6.9 mph - 0.00 in   Overcast
9:42 AM 44.6 °F 40.2 °F 44.6 °F 100% 29.82 in 10.0 mi South 8.1 mph - 0.00 in   Overcast
9:53 AM 46.0 °F 41.9 °F 45.0 °F 96% 29.82 in 10.0 mi South 8.1 mph - 0.00 in   Overcast
10:13 AM 46.4 °F 41.9 °F 44.6 °F 93% 29.83 in 10.0 mi South 9.2 mph 17.3 mph N/A   Overcast
10:35 AM 46.4 °F 41.1 °F 44.6 °F 93% 29.83 in 10.0 mi SSW 11.5 mph - N/A   Overcast
10:53 AM 46.9 °F - 45.0 °F 93% 29.83 in 10.0 mi SSW 13.8 mph 21.9 mph N/A   Scattered Clouds
11:17 AM 46.4 °F 40.4 °F 44.6 °F 93% 29.84 in 10.0 mi SSW 13.8 mph 24.2 mph N/A   Mostly Cloudy
11:53 AM 46.9 °F - 45.0 °F 93% 29.85 in 10.0 mi SSW 16.1 mph 24.2 mph N/A   Overcast
12:23 PM 48.2 °F - 46.4 °F 93% 29.85 in 10.0 mi SSW 12.7 mph 29.9 mph N/A   Scattered Clouds
12:46 PM 48.2 °F - 46.4 °F 93% 29.87 in 10.0 mi SW 9.2 mph 23.0 mph N/A   Partly Cloudy
12:53 PM 48.0 °F - 46.0 °F 93% 29.87 in 10.0 mi SW 13.8 mph 24.2 mph N/A   Scattered Clouds
1:53 PM 48.0 °F - 45.0 °F 89% 29.90 in 10.0 mi SW 12.7 mph 29.9 mph N/A   Partly Cloudy
2:30 PM 48.2 °F - 44.6 °F 87% 29.91 in 10.0 mi SW 15.0 mph 33.4 mph N/A   Partly Cloudy
2:53 PM 48.0 °F - 43.0 °F 83% 29.92 in 10.0 mi WSW 10.4 mph 25.3 mph N/A   Clear
3:53 PM 48.0 °F - 41.0 °F 77% 29.96 in 10.0 mi SW 12.7 mph 26.5 mph N/A   Clear
4:53 PM 46.9 °F - 39.0 °F 74% 29.99 in 10.0 mi SW 10.4 mph 24.2 mph N/A   Clear
5:53 PM 46.0 °F 41.4 °F 39.0 °F 76% 30.02 in 10.0 mi WSW 9.2 mph 21.9 mph N/A   Clear
6:53 PM 46.0 °F 43.1 °F 39.0 °F 76% 30.05 in 10.0 mi WSW 5.8 mph - N/A   Clear
7:53 PM 44.1 °F - 37.9 °F 79% 30.06 in 10.0 mi Calm Calm - N/A   Clear
8:53 PM 39.9 °F 37.8 °F 37.9 °F 93% 30.10 in 10.0 mi West 3.5 mph - N/A   Clear
9:53 PM 37.9 °F - 37.0 °F 97% 30.12 in 10.0 mi Calm Calm - N/A   Clear
10:53 PM 39.9 °F - 39.0 °F 97% 30.13 in 10.0 mi Calm Calm - N/A   Scattered Clouds
11:53 PM 43.0 °F 40.3 °F 39.0 °F 86% 30.14 in 10.0 mi SW 4.6 mph - N/A   Partly Cloudy